1513270800.29,14654,6.88,71896.8,-11.01,-30.39,-28.53,0,*66
1513270801.51,14655,6.88,71896.8,-11.01,-30.27,-28.53,0,*68
1513270802.72,14656,6.88,71882.0,-11.01,-30.23,-28.53,0,*6F
1513270803.94,14657,6.88,71880.5,-11.01,-29.95,-28.31,0,*6F
1513270805.19,14658,6.88,71892.3,-11.01,-29.95,-28.21,0,*61
1513270806.44,14659,6.94,71892.5,-11.01,-29.83,-28.21,0,*67
1513270807.68,14660,6.88,71896.0,-11.01,-29.73,-28.15,0,*65
1513270808.95,14661,6.88,71896.0,-10.99,-29.73,-28.15,0,*64
1513270810.22,14662,6.94,71908.5,-10.99,-29.67,-28.21,0,*65
1513270811.49,14663,6.88,71908.8,-10.99,-29.51,-27.89,0,*6C
1513270812.74,14664,6.94,71896.0,-10.97,-29.51,-27.89,0,*65
1513270814.02,14665,6.94,71892.5,-10.99,-29.51,-28.15,0,*60
1513270815.32,14666,6.88,71892.5,-10.99,-29.51,-28.05,0,*62
1513270816.57,14667,6.94,71890.0,-10.97,-29.51,-28.15,0,*6C
1513270817.85,14668,6.88,71882.5,-10.97,-29.35,-27.99,0,*6A
1513270819.14,14669,6.88,71888.8,-10.99,-29.17,-27.99,0,*65
1513270820.4,14670,6.88,71884.8,-10.97,-29.17,-27.99,0,*63
1513270821.65,14671,6.94,71890.0,-10.97,-29.23,-27.99,0,*65
1513270822.89,14672,6.88,71892.0,-10.97,-29.17,-28.15,0,*6A
1513270824.14,14673,6.88,71894.3,-10.97,-29.17,-28.15,0,*6B
1513270825.41,14674,6.88,71882.5,-10.97,-29.17,-28.05,0,*6D
1513270826.68,14675,6.88,71888.5,-10.99,-28.91,-27.89,0,*66
1513270827.94,14676,6.88,71906.5,-10.99,-28.75,-27.71,0,*68
1513270829.2,14677,6.88,71890.5,-10.95,-28.63,-27.77,0,*64
1513270830.46,14678,6.94,71890.3,-10.97,-28.75,-27.83,0,*65
1513270831.76,14679,6.94,71886.8,-10.95,-28.79,-27.83,0,*6A
1513270833.02,14680,6.94,71882.0,-10.95,-28.79,-27.93,0,*6D
1513270834.32,14681,6.88,71850.0,-10.95,-29.01,-28.25,0,*60
1513270835.59,14682,6.94,71850.5,-10.95,-28.97,-28.25,0,*6D
1513270836.88,14683,6.94,71878.0,-10.95,-28.79,-27.99,0,*64
1513270838.17,14684,6.88,71860.0,-10.95,-28.59,-27.83,0,*6A
1513270839.39,14685,6.88,71868.5,-10.93,-28.53,-27.89,0,*6D
1513270840.66,14686,6.88,71850.0,-10.97,-28.75,-28.21,0,*63
1513270841.92,14687,6.88,71856.5,-10.93,-28.75,-28.09,0,*6C
1513270843.21,14688,6.88,71848.0,-10.95,-28.59,-27.99,0,*6D
1513270844.5,14689,6.88,71844.0,-10.95,-28.47,-27.83,0,*68
1513270845.78,14690,6.88,71836.5,-10.95,-28.47,-27.83,0,*60
1513270847.02,14691,6.88,71828.5,-10.93,-28.43,-27.89,0,*69
1513270848.28,14692,6.88,71842.5,-10.95,-28.47,-27.93,0,*63
1513270849.57,14693,6.88,71862.3,-10.95,-28.59,-28.09,0,*61
1513270850.81,14694,6.88,71876.5,-10.93,-28.53,-28.09,0,*6A
1513270852.07,14695,6.94,71884.3,-10.93,-28.43,-28.09,0,*6A
1513270853.33,14696,6.88,71890.8,-10.95,-28.47,-28.15,0,*66
1513270854.63,14697,6.88,71892.0,-10.95,-28.59,-28.09,0,*65
1513270855.9,14698,6.88,71898.0,-10.91,-28.53,-28.21,0,*6E
1513270857.19,14699,6.88,71912.3,-10.95,-28.63,-28.43,0,*6C
1513270858.43,14700,6.88,71896.5,-10.93,-28.53,-28.21,0,*6C
1513270859.7,14701,6.88,71896.3,-10.95,-28.47,-28.15,0,*69
1513270860.99,14702,6.88,71892.3,-10.95,-28.47,-28.25,0,*69
1513270862.26,14703,6.88,71890.3,-10.95,-28.59,-28.31,0,*62
1513270863.5,14704,6.88,71898.0,-10.93,-28.59,-28.37,0,*65
1513270864.73,14705,6.88,71902.0,-10.93,-28.59,-28.37,0,*64
1513270866.0,14706,6.88,71902.0,-10.93,-28.63,-28.43,0,*6D
1513270867.23,14707,6.88,71900.5,-10.93,-28.53,-28.43,0,*6F
1513270868.52,14708,6.88,71902.5,-10.95,-28.63,-28.47,0,*61
1513270869.82,14709,6.88,71904.0,-10.95,-28.63,-28.59,0,*6F
1513270871.08,14710,6.88,71904.8,-10.93,-28.63,-28.59,0,*61
1513270872.38,14711,6.88,71900.8,-10.95,-28.59,-28.59,0,*6F
1513270873.59,14712,6.94,71900.5,-10.93,-28.53,-28.53,0,*6A
1513270874.83,14713,6.88,71896.5,-10.93,-28.59,-28.53,0,*61
1513270876.06,14714,6.88,71896.0,-10.93,-28.43,-28.53,0,*6D
1513270877.28,14715,6.94,71910.8,-10.93,-28.37,-28.37,0,*6D
1513270878.55,14716,6.94,71876.0,-10.95,-28.31,-28.25,0,*6D
1513270879.81,14717,6.88,71870.0,-10.93,-28.25,-28.21,0,*6B
1513270881.11,14718,6.88,71862.8,-10.91,-28.09,-28.09,0,*62
1513270882.37,14719,6.88,71826.3,-10.93,-28.09,-28.09,0,*61
1513270883.66,14720,6.94,71842.3,-10.95,-27.99,-28.09,0,*6B
1513270884.95,14721,6.94,71866.0,-10.91,-28.21,-28.09,0,*62
1513270886.2,14722,6.88,71852.3,-10.89,-28.05,-28.15,0,*63
1513270887.5,14723,6.94,71866.8,-10.91,-28.05,-28.05,0,*6A
1513270888.74,14724,6.94,71886.5,-10.91,-27.89,-27.93,0,*66
1513270889.98,14725,6.94,71864.3,-10.89,-27.71,-27.83,0,*68
1513270891.21,14726,6.88,71860.5,-10.89,-27.71,-27.83,0,*6B
1513270892.45,14727,6.88,71884.8,-10.91,-27.77,-27.77,0,*6E
1513270893.67,14728,6.94,71878.5,-10.89,-27.67,-27.71,0,*6F
1513270894.94,14729,6.94,71854.5,-10.87,-27.67,-27.83,0,*6D
1513270896.23,14730,6.88,71870.5,-10.87,-27.83,-27.99,0,*64
1513270897.52,14731,6.88,71876.3,-10.83,-27.99,-28.21,0,*66
1513270898.8,14732,6.88,71880.8,-10.87,-28.21,-28.31,0,*6C
1513270900.09,14733,6.94,71904.8,-10.83,-28.25,-28.47,0,*6C
1513270901.36,14734,6.88,71908.0,-10.83,-28.25,-28.53,0,*6E
1513270902.65,14735,6.88,71902.5,-10.87,-28.21,-28.47,0,*6A
1513270903.92,14736,6.88,71900.5,-10.83,-28.15,-28.43,0,*6E
1513270905.21,14737,6.88,71910.5,-10.83,-28.25,-28.47,0,*68
1513270906.45,14738,6.88,71904.3,-10.83,-28.15,-28.31,0,*65
1513270907.72,14739,6.88,71904.8,-10.83,-27.99,-28.31,0,*6F
1513270909.01,14740,6.88,71908.5,-10.83,-28.09,-28.43,0,*62
1513270910.25,14741,6.88,71890.5,-10.87,-28.31,-28.53,0,*6D
1513270911.54,14742,6.88,71892.5,-10.83,-27.99,-28.43,0,*66
1513270912.8,14743,6.88,71902.8,-10.83,-28.15,-28.47,0,*68
1513270914.07,14744,6.94,71896.0,-10.83,-28.25,-28.53,0,*69
1513270915.37,14745,6.88,71878.3,-10.83,-28.25,-28.47,0,*6D
1513270916.66,14746,6.88,71860.8,-10.83,-28.09,-28.47,0,*60
1513270917.93,14747,6.88,71874.3,-10.83,-28.25,-28.53,0,*6A
1513270919.17,14748,6.88,71864.8,-10.83,-28.15,-28.53,0,*66
1513270920.41,14749,6.94,71876.3,-10.81,-28.09,-28.53,0,*68
1513270921.65,14750,6.88,71878.0,-10.81,-28.09,-28.53,0,*60
1513270922.89,14751,6.94,71870.0,-10.81,-28.15,-28.63,0,*6F
1513270924.11,14752,6.88,71854.5,-10.81,-28.15,-28.53,0,*6F
1513270925.33,14753,6.88,71836.8,-10.81,-28.15,-28.53,0,*6E
1513270926.62,14754,6.94,71864.0,-10.79,-28.09,-28.59,0,*69
1513270927.89,14755,6.94,71882.8,-10.81,-28.09,-28.63,0,*66
1513270929.16,14756,6.94,71856.3,-10.81,-28.09,-28.63,0,*65
1513270930.45,14757,6.88,71858.5,-10.79,-28.09,-28.59,0,*6A
1513270931.75,14758,6.88,71840.5,-10.79,-28.05,-28.63,0,*60
1513270932.99,14759,6.88,71864.5,-10.81,-27.99,-28.53,0,*6F
1513270934.29,14760,6.94,71876.5,-10.79,-28.09,-28.63,0,*67
1513270935.53,14761,6.88,71868.3,-10.81,-28.25,-28.69,0,*65
1513270936.82,14762,6.94,71866.8,-10.79,-28.09,-28.79,0,*6E
1513270938.08,14763,6.94,71836.8,-10.77,-28.21,-28.91,0,*6D
1513270939.38,14764,6.88,71846.8,-10.79,-28.21,-28.91,0,*64
1513270940.62,14765,6.88,71848.3,-10.79,-28.37,-28.97,0,*64
1513270941.9,14766,6.88,71860.0,-10.79,-28.47,-29.13,0,*6D
1513270943.15,14767,6.94,71886.3,-10.79,-28.43,-29.23,0,*6B
1513270944.41,14768,6.94,71900.8,-10.79,-28.43,-29.23,0,*64
1513270945.67,14769,6.88,71908.0,-10.79,-28.25,-29.23,0,*65
1513270946.94,14770,6.88,71912.3,-10.81,-28.47,-29.35,0,*69
1513270948.18,14771,6.88,71908.5,-10.81,-28.53,-29.35,0,*6D
1513270949.47,14772,6.88,71904.5,-10.79,-28.47,-29.39,0,*60
1513270950.72,14773,6.94,71902.5,-10.81,-28.53,-29.51,0,*6D
1513270951.96,14774,6.88,71902.0,-10.81,-28.53,-29.51,0,*6A
1513270953.23,14775,6.88,71900.0,-10.81,-28.47,-29.51,0,*6E
1513270954.45,14776,6.88,71902.5,-10.81,-28.53,-29.61,0,*6B
1513270955.72,14777,6.88,71904.8,-10.83,-28.63,-29.67,0,*6D
1513270956.96,14778,6.88,71904.3,-10.83,-28.53,-29.61,0,*67
1513270958.23,14779,6.88,71902.5,-10.83,-28.53,-29.51,0,*65
1513270959.48,14780,6.88,71900.5,-10.81,-28.53,-29.51,0,*61
1513270960.75,14781,6.88,71906.3,-10.83,-28.63,-29.67,0,*64
1513270962.02,14782,6.88,71908.0,-10.83,-28.63,-29.67,0,*67
1513270963.28,14783,6.88,71908.5,-10.83,-28.47,-29.61,0,*66
1513270964.57,14784,6.88,71914.8,-10.83,-28.43,-29.51,0,*66
1513270965.86,14785,6.88,71912.3,-10.87,-28.59,-29.73,0,*68
1513270967.12,14786,6.88,71908.8,-10.83,-28.47,-29.67,0,*65
1513270968.37,14787,6.88,71918.5,-10.83,-28.69,-29.83,0,*62
1513270969.64,14788,6.88,71924.0,-10.83,-28.53,-29.73,0,*6B
1513270970.9,14789,6.88,71920.0,-10.83,-28.53,-29.73,0,*6A
1513270972.17,14790,6.94,71922.0,-10.83,-28.47,-29.67,0,*62
1513270973.43,14791,6.88,71920.5,-10.83,-28.47,-29.83,0,*69
1513270974.73,14792,6.88,71928.8,-10.83,-28.63,-29.89,0,*66
1513270975.97,14793,6.94,71934.3,-10.87,-28.69,-29.95,0,*64
1513270977.24,14794,6.88,71930.5,-10.83,-28.63,-29.83,0,*6A
1513270978.53,14795,6.88,71924.8,-10.87,-28.59,-29.89,0,*6C
1513270979.78,14796,6.88,71926.5,-10.83,-28.53,-29.83,0,*6B
1513270981.05,14797,6.94,71906.3,-10.83,-28.53,-29.89,0,*60
1513270982.32,14798,6.88,71908.0,-10.87,-28.59,-29.83,0,*6B
1513270983.61,14799,6.88,71894.5,-10.83,-28.47,-29.73,0,*6E
1513270984.85,14800,6.88,71904.3,-10.87,-28.37,-29.79,0,*68
1513270986.09,14801,6.88,71898.8,-10.87,-28.37,-29.79,0,*69
1513270987.35,14802,6.94,71906.3,-10.83,-28.31,-29.73,0,*62
1513270988.59,14803,6.88,71906.3,-10.83,-28.31,-29.67,0,*66
1513270989.86,14804,6.94,71912.8,-10.83,-28.25,-29.61,0,*62
1513270991.13,14805,6.88,71900.8,-10.83,-28.25,-29.61,0,*63
1513270992.4,14806,6.88,71892.5,-10.83,-28.25,-29.67,0,*66
1513270993.64,14807,6.88,71898.3,-10.83,-28.31,-29.83,0,*68
1513270994.93,14808,6.94,71910.0,-10.87,-28.47,-29.89,0,*68
1513270996.22,14809,6.88,71910.8,-10.83,-28.47,-30.01,0,*65
1513270997.47,14810,6.88,71892.8,-10.81,-28.53,-30.01,0,*6A
1513270998.76,14811,6.88,71898.3,-10.83,-28.47,-30.01,0,*6C
1513271000.02,14812,6.88,71908.0,-10.81,-28.47,-30.05,0,*69
1513271001.24,14813,6.88,71906.5,-10.81,-28.53,-30.23,0,*69
1513271002.48,14814,6.88,71906.3,-10.81,-28.85,-30.39,0,*6E
1513271003.73,14815,6.94,71906.5,-10.81,-28.79,-30.33,0,*66
1513271004.98,14816,6.88,71898.3,-10.81,-28.79,-30.33,0,*65
1513271006.22,14817,6.88,71896.3,-10.81,-28.85,-30.51,0,*63
1513271007.49,14818,6.94,71906.3,-10.81,-28.79,-30.55,0,*6B
1513271008.72,14819,6.88,71900.8,-10.81,-28.97,-30.67,0,*6B
1513271009.97,14820,6.88,71904.3,-10.81,-29.01,-30.67,0,*6F
1513271011.22,14821,6.88,71902.3,-10.81,-29.01,-30.67,0,*6E
1513271012.52,14822,6.88,71892.3,-10.83,-29.01,-30.55,0,*6E
1513271013.79,14823,6.88,71884.5,-10.83,-28.85,-30.55,0,*62
1513271015.06,14824,6.88,71884.5,-10.83,-28.85,-30.55,0,*65
1513271016.36,14825,6.94,71886.8,-10.83,-29.13,-30.77,0,*6A
1513271017.66,14826,6.88,71890.5,-10.83,-29.01,-30.77,0,*6A
1513271018.96,14827,6.88,71906.3,-10.83,-29.13,-30.77,0,*68
1513271020.27,14828,6.88,71904.5,-10.83,-29.01,-30.77,0,*64
1513271021.57,14829,6.88,71910.0,-10.83,-29.17,-30.89,0,*63
1513271022.83,14830,6.88,71912.5,-10.81,-29.13,-30.95,0,*60
1513271024.11,14831,6.88,71872.8,-10.81,-29.01,-30.77,0,*6E
1513271025.36,14832,6.88,71876.5,-10.81,-28.97,-30.77,0,*63
1513271026.64,14833,6.88,71876.3,-10.81,-29.01,-30.77,0,*6C
1513271027.94,14834,6.94,71872.5,-10.83,-29.13,-30.77,0,*6A
1513271029.25,14835,6.88,71856.0,-10.83,-29.01,-30.89,0,*69
1513271030.52,14836,6.94,71862.5,-10.81,-29.17,-30.89,0,*6F
1513271031.79,14837,6.94,71868.3,-10.81,-29.17,-30.95,0,*63
1513271033.03,14838,6.88,71854.3,-10.79,-29.23,-31.01,0,*60
1513271034.3,14839,6.88,71860.0,-10.79,-29.29,-31.01,0,*6B
1513271035.57,14840,6.88,71876.0,-10.81,-29.35,-30.95,0,*63
1513271036.85,14841,6.94,71878.0,-10.81,-29.35,-31.11,0,*6F
1513271038.09,14842,6.88,71868.5,-10.81,-29.29,-31.29,0,*6A
1513271039.39,14843,6.94,71864.3,-10.79,-29.29,-31.23,0,*66
1513271040.64,14844,6.88,71864.3,-10.81,-29.51,-31.29,0,*63
1513271041.89,14845,6.88,71866.0,-10.81,-29.67,-31.39,0,*66
1513271043.13,14846,6.88,71876.3,-10.81,-29.83,-31.61,0,*62
1513271044.4,14847,6.88,71880.3,-10.79,-29.67,-31.51,0,*6D
1513271045.67,14848,6.88,71874.3,-10.81,-29.73,-31.57,0,*66
1513271046.91,14849,6.88,71874.5,-10.79,-29.67,-31.67,0,*66
1513271048.17,14850,6.94,71894.3,-10.81,-30.01,-31.73,0,*64
1513271049.45,14851,6.88,71890.5,-10.83,-30.05,-31.73,0,*63
1513271050.71,14852,6.88,71892.0,-10.81,-30.05,-31.73,0,*62
1513271052.0,14853,6.88,71900.0,-10.83,-30.17,-31.85,0,*6B
1513271053.24,14854,6.88,71896.5,-10.81,-30.23,-31.85,0,*69
1513271054.51,14855,6.88,71894.0,-10.83,-30.33,-31.95,0,*6A
1513271055.77,14856,6.88,71892.0,-10.83,-30.33,-31.95,0,*69
1513271057.04,14857,6.88,71908.3,-10.83,-30.33,-31.95,0,*68
1513271058.3,14858,6.88,71914.5,-10.87,-30.39,-32.01,0,*67
1513271059.53,14859,6.94,71908.8,-10.83,-30.33,-32.01,0,*68
1513271060.8,14860,6.88,71908.5,-10.83,-30.33,-31.95,0,*6C
1513271062.04,14861,6.94,71904.3,-10.83,-30.33,-32.01,0,*63
1513271063.27,14862,6.88,71890.8,-10.87,-30.45,-32.01,0,*65
1513271064.5,14863,6.88,71890.3,-10.87,-30.45,-32.01,0,*64
1513271065.76,14864,6.88,71882.3,-10.83,-30.39,-32.13,0,*6F
1513271067.02,14865,6.88,71882.0,-10.83,-30.55,-32.01,0,*67
1513271068.26,14866,6.88,71866.8,-10.83,-30.67,-32.13,0,*66
1513271069.5,14867,6.88,71866.8,-10.83,-30.67,-32.13,0,*67
1513271070.79,14868,6.88,71860.5,-10.83,-30.55,-32.19,0,*63
1513271072.05,14869,6.94,71864.3,-10.87,-30.77,-32.35,0,*68
1513271073.34,14870,6.88,71868.0,-10.87,-30.77,-32.19,0,*6E
1513271074.64,14871,6.88,71866.0,-10.87,-30.77,-32.19,0,*6F
1513271075.88,14872,6.88,71876.0,-10.87,-30.83,-32.35,0,*69
1513271077.13,14873,6.88,71880.0,-10.87,-30.83,-32.39,0,*64
1513271078.42,14874,6.88,71876.8,-10.87,-30.95,-32.29,0,*65
1513271079.68,14875,6.88,71878.3,-10.83,-30.73,-32.13,0,*61
1513271080.95,14876,6.94,71870.8,-10.83,-30.89,-32.39,0,*6F
1513271082.21,14877,6.88,71866.3,-10.87,-31.11,-32.57,0,*62
1513271083.5,14878,6.88,71878.8,-10.83,-30.89,-32.29,0,*60
1513271084.78,14879,6.88,71880.5,-10.87,-31.11,-32.51,0,*6A
1513271086.02,14880,6.88,71888.3,-10.83,-31.05,-32.51,0,*6D
1513271087.27,14881,6.88,71880.3,-10.87,-31.17,-32.51,0,*6B
1513271088.5,14882,6.88,71872.0,-10.87,-31.29,-32.57,0,*63
1513271089.74,14883,6.88,71878.0,-10.87,-31.33,-32.57,0,*69
1513271090.98,14884,6.88,71856.5,-10.87,-31.33,-32.51,0,*68
1513271092.23,14885,6.88,71858.0,-10.87,-31.29,-32.39,0,*6C
1513271093.47,14886,6.88,71852.3,-10.87,-31.17,-32.39,0,*62
1513271094.72,14887,6.88,71868.0,-10.87,-31.17,-32.39,0,*63
1513271095.96,14888,6.88,71868.0,-10.87,-31.17,-32.39,0,*6C
1513271097.2,14889,6.88,71868.5,-10.87,-31.17,-32.39,0,*6D
1513271098.5,14890,6.88,71870.8,-10.83,-31.23,-32.45,0,*6D
1513271099.74,14891,6.88,71856.5,-10.83,-31.29,-32.51,0,*63
1513271100.99,14892,6.88,71864.0,-10.83,-31.29,-32.51,0,*60
1513271102.24,14893,6.88,71878.0,-10.87,-31.45,-32.69,0,*64
1513271103.49,14894,6.88,71880.0,-10.83,-31.45,-32.69,0,*67
1513271104.76,14895,6.88,71880.3,-10.83,-31.39,-32.69,0,*6D
1513271106.03,14896,6.88,71880.5,-10.83,-31.45,-32.63,0,*6F
1513271107.3,14897,6.88,71884.5,-10.83,-31.61,-32.69,0,*62
1513271108.6,14898,6.88,71878.3,-10.83,-31.61,-32.79,0,*6C
1513271109.84,14899,6.88,71872.0,-10.87,-31.67,-32.91,0,*69
1513271111.08,14900,6.88,71876.3,-10.87,-31.79,-32.91,0,*67
1513271112.35,14901,6.94,71860.8,-10.83,-31.79,-32.85,0,*67
1513271113.65,14902,6.88,71854.5,-10.87,-31.85,-32.85,0,*63
1513271114.92,14903,6.88,71866.3,-10.87,-31.91,-33.03,0,*68
1513271116.18,14904,6.88,71862.5,-10.87,-31.91,-33.03,0,*6F
1513271117.48,14905,6.88,71862.8,-10.87,-31.91,-33.09,0,*64
1513271118.75,14906,6.88,71874.0,-10.83,-31.85,-33.03,0,*6C
1513271120.02,14907,6.94,71876.0,-10.87,-32.01,-33.09,0,*6C
1513271121.29,14908,6.88,71854.0,-10.87,-32.01,-33.09,0,*63
1513271122.51,14909,6.88,71852.8,-10.89,-32.01,-33.15,0,*61
1513271123.78,14910,6.88,71862.0,-10.89,-32.07,-33.27,0,*6E
1513271125.05,14911,6.88,71870.0,-10.89,-32.19,-33.31,0,*67
1513271126.34,14912,6.88,71876.3,-10.87,-32.19,-33.27,0,*6D
1513271127.63,14913,6.94,71880.8,-10.87,-32.19,-33.31,0,*6B
1513271128.93,14914,6.88,71884.8,-10.87,-32.19,-33.31,0,*6C
1513271130.19,14915,6.94,71888.3,-10.87,-32.23,-33.31,0,*64
1513271131.43,14916,6.88,71890.3,-10.89,-32.35,-33.43,0,*6B
1513271132.67,14917,6.88,71882.8,-10.89,-32.35,-33.43,0,*6A
1513271133.9,14918,6.88,71898.8,-10.89,-32.39,-33.61,0,*69
1513271135.14,14919,6.88,71904.8,-10.89,-32.39,-33.61,0,*68
1513271136.37,14920,6.94,71904.8,-10.89,-32.51,-33.61,0,*6C
1513271137.61,14921,6.88,71906.3,-10.89,-32.51,-33.77,0,*6A
1513271138.88,14922,6.88,71912.8,-10.91,-32.45,-33.67,0,*64
1513271140.14,14923,6.88,71902.0,-10.91,-32.57,-33.73,0,*63
1513271141.38,14924,6.88,71902.0,-10.91,-32.57,-33.83,0,*6B
1513271142.62,14925,6.88,71904.8,-10.91,-32.57,-33.83,0,*6A
1513271143.89,14926,6.88,71906.0,-10.91,-32.57,-33.73,0,*66
1513271145.13,14927,6.88,71906.0,-10.91,-32.57,-33.83,0,*68
1513271146.4,14928,6.88,71912.3,-10.91,-32.57,-33.89,0,*6D
1513271147.61,14929,6.94,71918.3,-10.89,-32.57,-33.95,0,*68
1513271148.87,14930,6.88,71914.0,-10.91,-32.63,-34.07,0,*62
1513271150.16,14931,6.94,71904.5,-10.91,-32.45,-33.89,0,*66
1513271151.43,14932,6.88,71884.5,-10.91,-32.57,-34.01,0,*61
1513271152.7,14933,6.88,71904.8,-10.91,-32.75,-34.07,0,*66
1513271153.94,14934,6.88,71904.8,-10.91,-32.57,-34.07,0,*61
1513271155.21,14935,6.94,71906.3,-10.91,-32.57,-34.01,0,*66
1513271156.45,14936,6.88,71896.5,-10.93,-32.57,-34.01,0,*67
1513271157.71,14937,6.88,71872.3,-10.93,-32.45,-34.01,0,*65
1513271158.95,14938,6.88,71874.5,-10.93,-32.57,-34.01,0,*69
1513271160.21,14939,6.88,71866.0,-10.93,-32.45,-34.01,0,*6B
1513271161.51,14940,6.88,71866.3,-10.91,-32.45,-34.01,0,*67
1513271162.75,14941,6.88,71858.8,-10.91,-32.57,-34.07,0,*63
1513271163.99,14942,6.88,71862.3,-10.91,-32.57,-34.07,0,*60
1513271165.25,14943,6.88,71870.3,-10.91,-32.39,-34.01,0,*6F
1513271166.54,14944,6.88,71862.5,-10.91,-32.29,-34.01,0,*69
1513271167.81,14945,6.94,71844.8,-10.91,-32.39,-34.01,0,*69
1513271169.05,14946,6.88,71838.5,-10.91,-32.57,-34.07,0,*64
1513271170.29,14947,6.88,71830.8,-10.89,-32.39,-34.01,0,*62
1513271171.51,14948,6.94,71848.8,-10.89,-32.51,-34.13,0,*60
1513271172.77,14949,6.88,71832.5,-10.91,-32.57,-34.19,0,*64
1513271173.97,14950,6.88,71832.8,-10.89,-32.57,-34.25,0,*6A
1513271175.21,14951,6.88,71824.0,-10.89,-32.69,-34.35,0,*67
1513271176.48,14952,6.88,71834.8,-10.91,-32.79,-34.41,0,*6F
1513271177.71,14953,6.88,71824.3,-10.89,-32.57,-34.35,0,*68
1513271178.92,14954,6.88,71834.0,-10.89,-32.57,-34.25,0,*6E
1513271180.13,14955,6.88,71842.0,-10.89,-32.69,-34.41,0,*60
1513271181.37,14956,6.88,71840.3,-10.89,-32.85,-34.59,0,*68
1513271182.64,14957,6.88,71812.5,-10.87,-32.85,-34.71,0,*6D
1513271183.93,14958,6.88,71820.0,-10.87,-32.75,-34.53,0,*6D
1513271185.22,14959,6.94,71838.3,-10.87,-32.85,-34.53,0,*63
1513271186.49,14960,6.88,71842.8,-10.89,-32.85,-34.53,0,*67
1513271187.76,14961,6.88,71846.3,-10.87,-32.85,-34.59,0,*62
1513271189.02,14962,6.88,71842.8,-10.83,-32.85,-34.71,0,*6F
1513271190.29,14963,6.88,71850.3,-10.87,-33.15,-34.95,0,*68
1513271191.56,14964,6.88,71858.5,-10.87,-33.31,-35.13,0,*66
1513271192.8,14965,6.88,71864.5,-10.87,-33.15,-35.13,0,*61
1513271194.06,14966,6.88,71872.0,-10.83,-33.37,-35.07,0,*63
1513271195.32,14967,6.88,71860.5,-10.83,-33.37,-35.29,0,*6E
1513271196.61,14968,6.94,71868.3,-10.87,-33.49,-35.35,0,*61
1513271197.9,14969,6.88,71852.8,-10.87,-33.49,-35.35,0,*60
1513271199.2,14970,6.88,71860.8,-10.87,-33.49,-35.35,0,*68
1513271200.49,14971,6.88,71842.0,-10.87,-33.49,-35.35,0,*69
1513271201.78,14972,6.94,71862.8,-10.87,-33.61,-35.35,0,*60
1513271203.07,14973,6.94,71874.0,-10.87,-33.61,-35.35,0,*61
1513271204.34,14974,6.94,71878.8,-10.87,-33.31,-35.13,0,*67
1513271205.61,14975,6.88,71856.8,-10.87,-33.49,-35.29,0,*60
1513271206.9,14976,6.94,71872.3,-10.83,-33.27,-35.07,0,*63
1513271208.17,14977,6.94,71880.5,-10.87,-33.43,-35.29,0,*68
1513271209.46,14978,6.88,71866.5,-10.83,-33.43,-35.23,0,*69
1513271210.7,14979,6.94,71870.8,-10.87,-33.67,-35.71,0,*6D
1513271211.99,14980,6.88,71862.5,-10.87,-33.61,-35.53,0,*6D
1513271213.27,14981,6.88,71852.3,-10.87,-33.61,-35.23,0,*6B
1513271214.54,14982,6.88,71868.8,-10.87,-33.67,-35.35,0,*69
1513271215.81,14983,6.88,71874.5,-10.83,-33.73,-35.59,0,*63
1513271217.08,14984,6.88,71848.5,-10.87,-33.67,-35.35,0,*6F
1513271218.37,14985,6.94,71862.3,-10.87,-33.61,-35.35,0,*68
1513271219.63,14986,6.88,71864.0,-10.83,-33.55,-35.23,0,*6F
1513271220.9,14987,6.94,71856.8,-10.83,-33.73,-35.47,0,*68
1513271222.19,14988,6.94,71850.8,-10.83,-33.89,-35.65,0,*62
1513271223.43,14989,6.88,71870.8,-10.81,-33.89,-35.59,0,*6E
1513271224.69,14990,6.88,71870.5,-10.83,-33.95,-35.65,0,*66
1513271225.97,14991,6.94,71862.3,-10.83,-34.07,-35.95,0,*64
1513271227.25,14992,6.88,71874.8,-10.83,-34.13,-35.83,0,*65
1513271228.52,14993,6.88,71880.5,-10.83,-34.07,-35.83,0,*61
1513271229.77,14994,6.88,71874.8,-10.83,-33.95,-35.77,0,*61
1513271231.01,14995,6.94,71886.8,-10.87,-34.13,-35.71,0,*6B
1513271232.3,14996,6.88,71882.3,-10.83,-33.89,-35.65,0,*6D
1513271233.6,14997,6.88,71886.8,-10.87,-34.19,-35.83,0,*6E
1513271234.87,14998,6.88,71878.3,-10.83,-34.07,-35.65,0,*62
1513271236.09,14999,6.88,71858.0,-10.81,-34.13,-35.77,0,*67
1513271237.35,15000,6.94,71858.5,-10.83,-34.13,-35.77,0,*6D
1513271238.64,15001,6.88,71866.5,-10.83,-34.31,-35.83,0,*67
1513271239.94,15002,6.88,71874.8,-10.83,-34.31,-35.83,0,*64
1513271241.24,15003,6.88,71858.3,-10.83,-34.31,-35.83,0,*65
1513271242.5,15004,6.88,71852.8,-10.83,-34.47,-36.01,0,*6A
1513271243.74,15005,6.88,71864.0,-10.83,-34.47,-36.19,0,*62
1513271245.04,15006,6.88,71856.0,-10.83,-34.53,-36.13,0,*6E
1513271246.34,15007,6.88,71860.8,-10.83,-34.65,-36.13,0,*6A
1513271247.62,15008,6.88,71856.8,-10.87,-34.71,-36.25,0,*61
1513271248.89,15009,6.88,71864.3,-10.83,-34.53,-36.19,0,*6B
1513271250.16,15010,6.88,71882.3,-10.83,-34.65,-36.19,0,*66
1513271251.43,15011,6.88,71874.0,-10.83,-34.65,-36.19,0,*67
1513271252.7,15012,6.88,71872.8,-10.83,-34.65,-36.19,0,*64
1513271253.99,15013,6.88,71876.8,-10.83,-34.83,-36.13,0,*67
1513271255.24,15014,6.88,71872.3,-10.83,-34.71,-36.19,0,*67
1513271256.51,15015,6.88,71866.8,-10.87,-34.89,-36.25,0,*6A
1513271257.75,15016,6.88,71862.8,-10.87,-34.89,-36.19,0,*66
1513271259.02,15017,6.88,71868.8,-10.87,-34.89,-36.25,0,*68
1513271260.31,15018,6.88,71860.5,-10.83,-34.83,-36.13,0,*6C
1513271261.57,15019,6.88,71866.0,-10.87,-34.89,-36.13,0,*63
1513271262.87,15020,6.88,71868.3,-10.83,-34.83,-36.13,0,*67
1513271264.16,15021,6.94,71876.3,-10.87,-35.07,-36.37,0,*69
1513271265.43,15022,6.94,71880.8,-10.83,-35.07,-36.31,0,*68
1513271266.69,15023,6.88,71876.0,-10.87,-35.13,-36.37,0,*6E
1513271267.98,15024,6.88,71870.8,-10.87,-35.23,-36.37,0,*6A
1513271269.24,15025,6.94,71870.5,-10.87,-35.13,-36.37,0,*68
1513271270.53,15026,6.88,71858.8,-10.87,-35.23,-36.25,0,*6B
1513271271.8,15027,6.88,71860.0,-10.87,-35.29,-36.25,0,*60
1513271273.06,15028,6.88,71866.8,-10.89,-35.23,-36.37,0,*68
1513271274.27,15029,6.88,71860.3,-10.89,-35.13,-36.19,0,*66
1513271275.52,15030,6.88,71856.5,-10.89,-35.13,-36.25,0,*61
1513271276.75,15031,6.88,71860.3,-10.89,-35.23,-36.19,0,*6C
1513271278.02,15032,6.88,71854.0,-10.89,-35.23,-36.25,0,*60
1513271279.31,15033,6.88,71856.3,-10.91,-35.41,-36.25,0,*6C
1513271280.57,15034,6.88,71856.0,-10.89,-35.35,-36.37,0,*62
1513271281.86,15035,6.88,71856.3,-10.91,-35.41,-36.25,0,*6A
1513271283.12,15036,6.88,71860.3,-10.91,-35.41,-36.31,0,*6C
1513271284.38,15037,6.88,71868.0,-10.91,-35.35,-36.31,0,*6E
1513271285.68,15038,6.88,71866.8,-10.91,-35.35,-36.25,0,*64
1513271286.94,15039,6.88,71866.8,-10.91,-35.53,-36.31,0,*60
1513271288.19,15040,6.88,71868.0,-10.91,-35.53,-36.31,0,*6E
1513271289.46,15041,6.88,71872.8,-10.91,-35.59,-36.25,0,*60
1513271290.72,15042,6.88,71872.3,-10.89,-35.41,-36.25,0,*63
1513271291.98,15043,6.88,71882.8,-10.91,-35.53,-36.31,0,*6D
1513271293.24,15044,6.88,71888.3,-10.95,-35.65,-36.31,0,*6B
1513271294.47,15045,6.88,71886.3,-10.93,-35.53,-36.31,0,*69
1513271295.68,15046,6.88,71894.0,-10.93,-35.59,-36.31,0,*60
1513271296.94,15047,6.88,71898.3,-10.95,-35.59,-36.37,0,*61
1513271298.2,15048,6.88,71898.3,-10.95,-35.59,-36.37,0,*6E
1513271299.43,15049,6.88,71900.8,-10.93,-35.41,-36.31,0,*66
1513271300.67,15050,6.88,71898.8,-10.95,-35.59,-36.31,0,*61
1513271301.9,15051,6.88,71902.5,-10.95,-35.59,-36.31,0,*60
1513271303.14,15052,6.88,71910.3,-10.95,-35.47,-36.19,0,*66
1513271304.38,15053,6.88,71910.3,-10.95,-35.59,-36.19,0,*68